カタログに戻る

STARLINK-35476

運用中通信VLEO
NORAD 66825·PAYLOAD·🇺🇸 United States

打ち上げ Dec 2, 2025 から Vandenberg Space Force Base

Loading…

次のパス (今後24時間)

TLE

最新Source: CelesTrak SupGP

元期: Sep 14, 2026, 22:56 UTC

1 66825C 25280E   26257.95604167 -.00021668  00000+0 -18149-2 0  2570
2 66825  70.0013 217.3854 0003329 264.3150  62.1637 14.98361505    16

AllMySatでSTARLINK-35476をリアルタイム追跡

Download on the App Store